sat.trackr.live / text

‹ back to catalog

STARLINK-35764

NORAD 67109 · 2025-299H

PAYLOAD ACTIVE UNKNOWN

§ Identity

Operator
Country
US
Launch date
2025-12-15
Launch site
AFETR
Launch vehicle
Mass (kg)
RCS (m²)

Purposes: comms

External: N2YO · Heavens-Above · Gunter

§ Orbital elements

Epoch: 2026-05-25T03:57:38.841696Z

Period
94.27 min
Inclination
43.0005°
Eccentricity
0.0000718
Mean motion
15.27598767 rev/d
Perigee alt
482.5 km
Apogee alt
483.5 km
Semi-major
6,861.1 km
B*
6.0516e-4
RAAN
96.9704°
Arg perigee
245.8588°
Mean anomaly
114.2189°
Rev number
2,590

§ Raw data

STARLINK-357641 67109U 25299H   26145.16503289  .00016437  00000+0  60516-3 0  99932 67109  43.0005  96.9704 0000718 245.8588 114.2189 15.27598767 25907

JSON: /api/v1/satellites/67109 · /tle

For live sub-satellite position, see the globe view (requires WebGL).

§ Visibility from observer

Set your observer location to see the next 7 days of passes ≥ 10°. The values pass through the URL so the page stays shareable.

No JS? Fill the form by hand. The geolocation button needs JavaScript.